Location: Fiddletown
(38.4917°N, 120.6633°W)
Time: 20:45:03
(UTC-07:00)

Envisat - Visible Passes

Search period start: 25 June 2017 00:00
Search period end: 05 July 2017 00:00
Orbit: 764 x 766 km, 98.2° (Epoch: 25 June)

Date Brightness Start Highest point End Pass type
(mag) Time Alt. Az. Time Alt. Az. Time Alt. Az.
25 Jun 5.6 22:30:14 10° WSW 22:32:27 13° W 22:34:42 10° WNW visible
26 Jun 4.7 21:51:02 10° SSW 21:55:26 30° W 21:59:52 10° NW visible
27 Jun 3.3 21:13:33 10° S 21:18:36 69° WSW 21:23:41 10° NNW visible
28 Jun 5.5 22:18:04 10° SW 22:21:15 17° W 22:24:28 10° NW visible
29 Jun 4.3 21:39:36 10° SSW 21:44:18 38° W 21:49:01 10° NNW visible
30 Jun 3.1 21:02:26 10° SSE 21:07:31 88° W 21:12:38 10° NNW visible
01 Jul 5.2 22:06:15 10° SW 22:10:04 21° W 22:13:55 10° NW visible
02 Jul 3.9 21:28:16 10° S 21:33:10 48° W 21:38:05 10° NNW visible
03 Jul 5.7 22:34:20 10° WSW 22:35:57 11° W 22:37:35 10° WNW visible
04 Jul 4.9 21:54:39 10° SSW 21:58:54 27° W 22:03:11 10° NW visible
